Location: Unspecified
(0.0000°N, 0.0000°E)
Time: 09:52:51
(UTC+00:00)

Vanguard 3 - Pass Details

Date: 14 October 2022
Orbit: 509 x 3255 km, 33.3° (Epoch: 29 November)

Event Time Altitude Azimuth Distance (km) Brightness Sun altitude
Rises 22:29:06 0° 225° (SW) 7,182 12.2 -69.1°
Reaches altitude 10° 22:34:44 10° 218° (SW) 6,007 11.7 -70.4°
Enters shadow 22:41:08 23° 206° (SSW) 4,662 10.9 -71.8°
